Hauptseite
METAR-TAF:

METAR-TAF

Flughäfen :

Flughafen Epinal-Mirecourt

Épinal, Frankreich

Breite: 48-19-31N, Länge: 6-04-00E, Höhe: 330 m

Beobachtung

Neuester Wetterbericht von vor 57 Minuten, um 07:00 UTC
Wind 16 kt aus Süd/Südwest
Temperatur 17°C
Luftfeuchtigkeit 77%
Luftdruck 1016 hPa
Sichtweite 10 km oder mehr
Geschlossene Wolkendecke in der Höhe von 2000 ft

METAR: LFSG 230700Z AUTO 20016KT 9999 OVC020 17/13 Q1016

Zeit: 09:57 (07:57 UTC)


TAF: fehlend

Wetterbeobachtungen und Prognosen von mehr als 4000 Flughäfen (METAR und TAF Bericht).

Die verfügbaren Stationen werden durch gelbe und rote Markierungen auf der Karte dargestellt.

Führen Sie die Maus auf sie, um den Namen der Station zu sehen.

Darauf klicken, um die Beobachtung von Wetterbeobachtungen und Prognosen zu sehen.

Um die Karte zu ändern : klicken Sie auf den grünen Tasten mit einem schwarzen Kreuz Zum Vergrößern, auf den grünen Button mit einem Gedankenstrich zu verkleinern, oder auf die grünen Pfeile für benachbarte Karten.


METAR-TAF: